Cloud_Cover
34 75 100 100 100 100 84 85 6 49 81 0 7 5 2 0 0 39 14 2 0 0 0 0 0 0 0 1 0 0 0 0 0 3 24 5 10 95 100 100 100 100 100 100 100 100 100 100 83
20 74 100 100 100 92 45 2 2 31 48 82 0 4 0 0 0 4 18 60 0 0 0 0 0 0 6 0 0 0 0 0 0 0 3 5 27 100 100 100 100 100 100 100 100 98 80 100 100
69 9 64 100 51 3 37 4 29 25 79 23 0 0 4 0 0 0 0 0 0 0 0 0 0 0 3 0 6 0 0 0 0 5 3 15 13 92 100 100 100 100 100 100 100 100 100 100 87
99 100 95 99 31 100 73 77 10 0 1 0 0 2 0 3 0 0 0 0 0 0 0 0 0 0 1 0 5 4 2 0 87 42 41 5 9 100 100 100 100 100 100 100 100 100 100 100 100
99 100 100 95 28 6 5 18 5 0 1 0 0 0 0 0 4 19 1 0 0 0 0 0 0 0 0 0 0 0 1 0 46 3 100 5 5 100 100 100 100 100 100 100 100 100 69 100 30
49 100 96 92 33 73 72 38 2 8 54 92 20 1 0 9 51 36 1 16 0 0 0 0 0 0 0 0 0 0 0 1 4 2 76 5 5 100 100 100 100 100 100 100 100 100 100 57 48
90 88 77 100 41 0 9 3 5 89 22 14 42 4 0 68 70 61 57 0 0 0 0 0 0 4 0 0 0 4 4 1 0 0 5 5 67 100 100 100 100 100 98 100 100 100 97 34 52
100 48 48 100 7 4 71 13 43 91 8 5 28 5 0 6 100 91 0 2 5 0 0 5 9 8 4 0 0 0 4 2 0 4 5 5 83 100 94 88 65 22 68 40 11 100 100 100 92
84 96 97 100 3 37 3 32 100 82 81 57 9 5 0 11 100 14 75 0 4 1 0 5 5 99 36 0 3 4 0 4 49 4 57 7 96 100 95 92 5 99 72 5 72 45 74 100 100
99 99 100 15 74 0 0 2 45 5 5 75 10 17 1 54 4 0 0 0 0 92 56 0 7 35 11 1 1 28 8 0 5 71 94 80 90 100 100 99 95 86 100 99 100 100 99 24 99
40 78 67 62 100 99 0 0 0 91 5 4 5 5 1 0 0 0 0 0 0 77 100 2 5 5 4 5 1 0 4 5 44 19 100 76 54 100 100 100 100 100 100 100 100 70 34 15 81
85 100 67 100 91 33 26 22 76 31 52 1 4 28 2 1 0 0 0 0 0 0 0 0 5 5 4 59 74 35 3 1 1 5 59 100 37 100 100 100 100 100 100 100 12 81 100 100 100
100 99 70 100 49 78 15 92 86 97 34 6 2 5 0 4 3 3 1 0 0 0 0 0 9 20 9 99 100 98 56 2 95 1 40 7 100 100 100 100 100 100 100 100 100 100 100 75 91
100 92 93 100 86 7 12 40 15 100 2 92 5 5 21 92 80 19 36 0 0 0 0 0 3 82 50 100 100 82 99 30 11 4 2 0 36 52 100 100 100 100 100 100 100 100 26 61 92
100 64 100 100 100 100 26 17 28 100 0 0 5 0 0 41 37 7 3 0 0 0 0 0 0 7 68 100 100 39 97 94 5 14 29 46 4 5 16 26 73 100 8 8 50 58 7 5 6
100 84 100 100 87 100 100 40 0 0 0 0 28 5 4 4 6 4 46 5 0 0 0 0 0 0 14 94 100 81 29 44 89 74 15 9 85 40 38 66 47 42 4 20 5 2 2 27 12
100 100 100 100 100 100 100 100 75 0 0 0 1 4 1 2 5 5 87 17 0 0 0 0 0 1 43 4 100 100 100 95 100 74 55 9 8 24 94 100 94 11 100 97 5 21 47 68 18
100 100 100 100 100 100 100 95 100 96 98 2 5 2 1 16 5 2 4 88 80 88 0 1 0 0 11 0 11 100 100 100 100 66 40 94 2 40 5 57 9 5 25 92 84 9 9 5 61
98 91 100 100 84 71 94 79 100 100 100 6 0 0 0 0 14 5 7 12 68 1 27 5 3 0 0 0 0 14 93 96 84 93 47 79 13 5 5 14 43 5 4 33 98 34 100 99 85
3 82 86 19 100 100 90 85 100 100 100 63 4 9 0 3 3 14 58 9 2 3 2 2 5 5 1 1 9 93 77 86 100 62 100 85 100 100 100 92 41 9 10 5 45 98 92 14 100
100 79 41 11 85 96 100 52 99 100 99 42 82 57 2 0 2 4 1 5 100 26 3 0 12 2 5 5 10 4 43 81 59 29 99 100 100 99 100 100 98 100 100 98 95 33 100 100 100
99 100 95 100 93 79 92 97 14 100 42 10 100 17 5 0 0 10 34 5 6 7 1 3 0 3 3 5 21 4 71 5 1 2 67 100 100 100 100 100 100 32 93 100 87 100 78 100 100
97 3 64 100 6 18 47 25 100 100 100 100 100 100 1 1 0 0 88 40 1 3 6 0 1 5 3 5 98 44 5 0 57 60 97 94 100 100 100 99 100 58 93 100 100 100 12 98 100
1 1 0 14 100 99 70 29 100 94 100 98 70 14 19 0 0 0 2 70 57 0 0 0 2 0 2 5 22 9 87 93 71 87 100 100 100 100 100 59 90 40 24 58 32 38 63 80 99
5 5 80 96 64 98 26 18 92 91 12 0 4 21 2 0 0 0 0 6 98 64 10 0 0 5 3 0 2 5 3 70 5 5 41 100 99 100 100 68 98 73 45 12 24 4 5 54 100
0 1 87 5 96 60 100 8 27 8 5 96 95 2 0 0 0 0 0 0 2 34 94 84 2 2 5 5 3 3 5 6 76 5 13 100 100 100 100 100 31 5 7 5 5 5 3 5 10
1 0 16 93 5 64 47 78 73 14 98 100 99 0 0 0 0 0 0 0 0 0 0 0 35 3 2 1 4 5 9 14 38 69 80 53 71 82 96 99 96 36 5 3 0 5 5 5 5
69 0 0 3 54 73 52 18 12 29 100 100 100 3 0 0 0 0 0 0 0 0 0 0 2 5 0 0 3 22 58 20 34 49 22 5 58 86 83 66 5 5 5 5 5 16 4 5 5
4 0 0 0 0 5 1 68 89 6 34 7 68 89 16 0 0 0 0 0 0 0 0 0 0 2 9 3 0 1 2 26 20 98 100 93 26 100 98 24 5 5 4 1 2 5 53 5 5
0 0 0 3 66 0 89 32 98 19 17 9 0 4 0 0 0 0 0 0 0 0 0 0 0 0 0 3 5 5 4 56 14 31 64 6 6 5 4 34 5 2 7 2 5 3 2 4 5